Location: Wyoming Skies Observatory
(43.6910°N, 108.3105°W)
Time: 11:33:16
(UTC-06:00)

Daily predictions for brighter satellites

Satellite Brightness Start Highest point End
(mag) Time Altitude Azimuth Time Altitude Azimuth Time Altitude Azimuth
SL-23 DEB 4.3 21:27:25 10° WNW 21:33:16 68° SW 21:36:52 10° SE
Cosmos 2237 4.3 21:29:04 10° NNW 21:34:48 70° ENE 21:40:30 10° SSE
Meteor 2-20 Rocket 4.5 21:29:09 10° S 21:35:19 81° E 21:41:28 10° N
SPOT 5 3.1 21:31:44 10° SSE 21:36:16 55° ENE 21:41:05 10° N
Cosmos 405 3.7 21:34:44 10° NNW 21:38:18 56° W 21:41:50 10° S
USA 245 4.3 21:37:33 10° ESE 21:38:45 13° ENE 21:39:57 10° NE
Cosmos 1680 Rocket 3.9 21:37:36 10° NNW 21:42:49 66° WSW 21:48:01 10° S
Cosmos 2219 3.2 21:38:51 10° SSW 21:44:35 76° ESE 21:50:21 10° NNE
Cosmos 1328 3.7 21:41:29 10° S 21:45:26 77° E 21:49:23 10° N
Cosmos 1805 Rocket 3.8 21:41:22 10° S 21:45:42 53° E 21:50:02 10° NNE
Cosmos 2237 Rocket 3.4 21:42:23 10° N 21:47:24 31° NE 21:52:24 10° ESE
Cosmos 1271 Rocket 3.9 21:45:41 10° NNE 21:49:03 28° ENE 21:52:15 11° SE
Aureole 3 4.2 21:43:27 10° S 21:49:49 80° E 21:54:49 10° N
MetOp-B 4.3 21:45:02 10° SSE 21:50:18 62° ENE 21:55:36 10° N
H-2A R/B 3.7 21:47:07 10° ESE 21:51:08 22° ENE 21:55:11 10° NNE
Cosmos 2333 4.3 21:45:32 10° NNW 21:51:16 70° ENE 21:56:57 10° SSE
Cosmos 1898 Rocket 3.7 21:50:59 10° S 21:55:58 51° ESE 22:01:00 10° NNE
Cosmos 2360 Rocket 3.3 21:51:53 10° NW 21:57:10 42° WSW 22:02:26 10° S
Cosmos 1626 4.2 21:56:29 11° ESE 21:58:12 14° E 22:00:09 10° NE
Cosmos 2266 Rocket 4.5 21:52:34 10° SSW 21:58:48 64° W 22:04:57 10° N
OTV 4 2.2 21:58:55 10° SSW 22:00:43 15° SSE 22:01:15 14° SSE
Cosmos 1437 3.9 21:57:47 10° SSW 22:00:57 45° WNW 22:04:08 10° N
Cosmos 1703 4.2 21:59:02 12° SSE 22:02:08 29° E 22:05:34 10° NNE
H-2A R/B 3.0 21:58:18 10° S 22:02:41 49° W 22:07:04 10° NNW
SL-14 R/B 3.4 21:59:19 10° S 22:03:12 57° E 22:07:10 10° NNE
SPOT 1/Viking Rocket 3.8 21:58:30 11° SSE 22:03:21 56° ENE 22:08:26 10° N
Cosmos 1707 Rocket 3.5 21:59:02 10° N 22:03:26 80° E 22:07:48 10° S
YAOGAN 6 2.6 22:02:03 12° SSE 22:05:21 64° ENE 22:08:56 10° N
Cosmos 1666 Rocket 3.6 22:04:13 10° S 22:08:35 69° E 22:13:01 10° NNE
Meteor 2-11 Rocket 4.5 22:03:09 10° N 22:09:20 80° E 22:15:27 10° S
Cosmos 2150 Rocket 4.1 22:04:00 10° S 22:09:24 69° ESE 22:14:51 10° NNE
NOSS 3-1 (A) 3.4 22:03:34 10° SSW 22:09:25 71° ESE 22:15:56 10° NE
Cosmos 2315 Rocket 4.2 22:04:49 10° NNW 22:11:01 73° W 22:17:10 10° S
Meteor 1-27 4.3 22:06:55 10° N 22:12:38 87° W 22:18:14 10° S
Terra 3.2 22:09:58 12° ESE 22:13:19 25° ENE 22:17:12 10° N
SL-08 RB Rocket 4.1 22:11:03 15° SE 22:14:33 47° ENE 22:18:53 10° N
Cosmos 1300 3.2 22:17:17 10° NNW 22:21:05 58° W 22:24:50 10° S
CZ-4 SHROUD 4.2 22:18:09 10° S 22:21:09 42° W 22:24:10 10° NNW
ERBS 2.7 22:17:58 10° SSW 22:21:18 42° SE 22:24:37 10° ENE
Tiangong 1 1.0 22:18:35 10° WSW 22:21:39 58° SSE 22:24:22 12° E
Cosmos 1470 Rocket 4.2 22:19:29 17° SSE 22:22:23 37° E 22:26:23 10° NNE
Cosmos 1933 Rocket 4.2 22:20:22 17° SSE 22:23:24 38° E 22:27:32 10° NNE
Cosmos 2227 Rocket 2.5 22:22:02 10° S 22:27:22 45° ESE 22:32:45 10° NE
Nadezhda 1 Rocket 4.2 22:21:31 10° N 22:27:28 54° ENE 22:32:01 18° SSE
OAO 2 Rocket 4.2 22:25:00 10° SW 22:29:38 31° S 22:32:37 18° SE
ATLAS 2AS CENTAUR R/B 3.2 22:24:44 10° S 22:31:45 46° ESE 22:39:18 10° NE
Envisat 4.4 22:27:17 10° SSW 22:31:55 35° W 22:36:34 10° NNW
NOSS 0 Rocket 3.9 22:26:40 10° NNW 22:32:51 85° ENE 22:37:28 19° SSE
Lacrosse 4 Rocket 2.9 22:33:19 10° N 22:37:10 28° NE 22:40:03 15° ESE
SL-08 R/B 4.5 22:31:33 10° S 22:37:45 81° E 22:44:05 10° N
Cosmos 2058 4.5 22:37:03 10° SW 22:40:48 34° WNW 22:44:34 10° N
USA 32 4.1 22:35:55 10° N 22:41:12 85° W 22:45:26 16° S
ATLAS 3B R/B 3.2 22:34:32 10° NNW 22:41:26 51° NE 22:46:35 17° ESE
SL-16 R/B 3.2 22:37:17 10° N 22:42:32 37° NE 22:46:17 17° ESE
Cosmos 1745 Rocket 3.9 22:36:48 11° S 22:42:43 76° E 22:48:53 10° N
Cosmos 1455 2.4 22:39:37 10° N 22:43:23 54° E 22:45:11 27° SE
BREEZE-M DEB (TANK) 2.5 22:42:15 10° NW 22:44:12 48° NNE 22:45:52 20° E
CZ-4 R/B 3.8 22:39:49 10° NNE 22:44:46 84° ESE 22:49:17 12° SSW
Cosmos 2333 Rocket 2.2 22:39:55 10° NNW 22:45:42 89° WSW 22:49:33 22° SSE
ARGOS 3.4 22:45:02 17° S 22:49:18 69° WSW 22:54:41 10° NNW
Cosmos 1726 3.7 22:46:54 10° NNW 22:50:19 32° W 22:53:31 11° SSW
Cosmos 1937 Rocket 3.7 22:46:13 10° SSW 22:51:27 73° WNW 22:56:39 10° NNE
Cosmos 2297 Rocket 2.4 22:49:42 16° S 22:53:59 52° ESE 22:59:29 10° NE
NOSS 3-1 (C) 4.4 22:49:18 10° WSW 22:55:06 50° NW 23:01:35 10° NNE
Cosmos 2219 Rocket 2.6 22:51:26 10° NNW 22:56:54 56° WSW 23:00:37 20° S
COSMOS 2428 4.3 22:52:26 10° NW 22:57:12 28° WSW 23:01:57 10° SSW
COSMOS 2455 3.2 22:51:20 10° NNW 22:57:18 57° NE 23:01:03 23° SE
Cosmos 192 4.3 22:53:10 10° NNW 22:58:07 79° ENE 23:00:44 28° SSE
Cosmos 990 Rocket 3.9 22:53:41 10° SSW 22:58:49 87° WNW 23:04:00 10° NNE
Sich 1 4.4 22:55:41 10° SW 22:59:48 38° WNW 23:03:55 10° N
Cosmos 1862 Rocket 3.5 22:58:11 10° N 23:02:33 88° W 23:04:43 29° S
Cosmos 1386 Rocket 4.3 22:58:04 18° S 23:02:38 79° E 23:08:41 10° N
Meteor 1-4 Rocket 4.2 22:59:50 10° NNW 23:03:09 31° W 23:05:37 15° SSW
CARTOSAT-1 3.5 23:02:15 30° SSE 23:04:18 80° ENE 23:08:39 10° N
Cosmos 1869 3.5 23:14:52 10° NNW 23:18:54 68° W 23:20:30 34° SSW
Cosmos 1980 4.2 23:14:14 10° NW 23:19:41 51° WSW 23:22:45 25° S
Cosmos 2181 Rocket 4.2 23:14:58 10° N 23:21:20 65° E 23:24:38 30° SSE
IGS 5A 3.5 23:20:09 37° S 23:21:46 77° WSW 23:25:58 10° NNW
Spot 2 4.4 23:16:55 10° NNE 23:22:01 72° ESE 23:24:19 32° S
Cosmos 1269 Rocket 4.0 23:19:15 10° NNW 23:24:35 85° ENE 23:26:55 35° SSE
SeaSat 1 3.9 23:23:17 17° E 23:26:06 29° NE 23:30:20 10° N
CZ-4C R/B 4.1 23:20:23 10° NNW 23:26:30 33° NE 23:33:10 10° E
H-2A R/B 2.5 23:27:08 26° S 23:30:05 58° W 23:35:28 10° NNW
Cosmos 2237 Rocket 2.9 23:26:13 10° NW 23:31:38 45° WSW 23:34:29 25° SSW
Cosmos 1869 Rocket 3.8 23:30:50 42° SE 23:31:57 53° E 23:36:19 10° NNE
Cosmos 1626 3.3 23:31:10 21° SW 23:33:15 39° WNW 23:36:49 10° N
Meteor 1-26 Rocket 4.5 23:27:44 10° N 23:33:16 56° ENE 23:35:36 34° SE
NOSS 2-3 (C) 4.2 23:32:07 37° SSE 23:33:37 50° ESE 23:39:02 10° NE
CZ-4B R/B 4.0 23:37:17 11° ENE 23:37:48 12° ENE 23:39:05 10° NE
Cosmos 2082 4.4 23:33:10 10° SW 23:38:44 53° WNW 23:44:21 10° NNE
Cosmos 389 Rocket 2.8 23:37:09 10° N 23:40:38 49° ENE 23:40:50 49° E
Cosmos 1048 Rocket 4.0 23:37:37 10° NNW 23:43:01 84° WSW 23:45:02 40° SSE
Cosmos 1125 Rocket 3.5 23:40:43 25° SSW 23:43:51 82° WNW 23:49:12 10° NNE
Cosmos 44 Rocket 3.5 23:42:24 40° S 23:43:57 56° ESE 23:49:05 10° NE
Okean 1-7 3.0 23:44:04 10° N 23:48:20 69° E 23:49:08 54° SE
Terra 2.8 23:48:51 26° SW 23:50:52 37° W 23:55:19 10° NNW
Cosmos 158 Rocket 4.2 23:46:15 10° NNW 23:51:31 62° ENE 23:53:13 40° SE
ALOS 2 4.0 23:51:00 24° E 23:52:10 27° ENE 23:55:54 10° N
BREEZE-M DEB (TANK) 3.6 23:53:59 21° ENE 23:53:59 21° ENE 23:55:29 10° ENE
